Simultaneous Nadir Overpasses (SNOs) Predictions

Prediction of SNOs between GOES-15 and METOP-A Satellite Orbit:

Table of predicted SNOs for the next 14.0 days since TLE Epoch: 6/14/2013
Index Date Time (GOES-15) GOES-15 Lat,Lon METOP-A Lat,Lon Distance(km) Time Diff (sec)
1 06/15/2013 06:12:32 0.12,-134.66 0.87,-131.33 379.11 80
2 06/16/2013 18:34:02 -0.10,-134.63 0.15,-135.88 141.85 80
3 06/17/2013 18:10:42 -0.12,-134.59 -0.93,-130.88 422.53 80
4 06/19/2013 06:32:21 0.10,-134.47 -0.14,-135.46 113.10 80
5 06/20/2013 06:09:02 0.11,-134.42 1.00,-130.47 450.38 80
6 06/21/2013 18:30:31 -0.09,-134.38 0.07,-135.01 72.40 80
7 06/22/2013 18:07:12 -0.11,-134.32 -1.07,-130.02 490.82 80
8 06/24/2013 06:28:51 0.09,-134.19 0.01,-134.60 46.06 80
9 06/26/2013 18:27:01 -0.09,-134.08 -0.08,-134.15 7.38 80




NCC Satellite Simultaneous Nadir Overpasses (SNOs) Prediction Service
